This is the latest recevied weather packets stored in our database for station/object KC3DGM. If no packets are shown the sender has not sent any weather packets the latest 10 day(s).
| Time | Temp. | Humidity | Pressure | Rain* | Wind** | Luminosity | Snow |
|---|---|---|---|---|---|---|---|
| 1777507759 | 8.33° C | 94% | 980.5 hPa | 0 mm | - | 0 W/m² | - |
| 1777507456 | 7.78° C | 94% | 980.6 hPa | 0 mm | - | 0 W/m² | - |
| 1777507153 | 7.78° C | 94% | 980.5 hPa | 0 mm | - | 1 W/m² | - |
| 1777506851 | 7.78° C | 94% | 980.7 hPa | 0 mm | - | 2 W/m² | - |
| 1777506548 | 7.78° C | 95% | 980.3 hPa | 0 mm | - | 3 W/m² | - |
| 1777506243 | 7.78° C | 95% | 980.6 hPa | 0 mm | - | 6 W/m² | - |
| 1777505940 | 7.78° C | 95% | 980.3 hPa | 0 mm | - | 5 W/m² | - |
| 1777505635 | 7.78° C | 95% | 980.4 hPa | 0 mm | - | 6 W/m² | - |
| 1777505333 | 7.78° C | 95% | 980 hPa | 0 mm | - | 6 W/m² | - |
| 1777505029 | 7.78° C | 96% | 980.4 hPa | 0 mm | - | 8 W/m² | - |
| 1777504726 | 7.78° C | 96% | 980.4 hPa | 0 mm | - | 7 W/m² | - |
| 1777504424 | 7.78° C | 96% | 980.2 hPa | 0 mm | - | 8 W/m² | - |
| 1777504118 | 7.78° C | 95% | 980.2 hPa | 0 mm | - | 7 W/m² | - |
| 1777503814 | 8.33° C | 96% | 980.1 hPa | 0 mm | - | 10 W/m² | - |
| 1777503511 | 8.33° C | 96% | 979.8 hPa | 0 mm | - | 12 W/m² | - |
| 1777503207 | 8.33° C | 96% | 980.1 hPa | 0 mm | - | 11 W/m² | - |
| 1777502904 | 8.33° C | 96% | 979.7 hPa | 0 mm | - | 15 W/m² | - |
| 1777502602 | 8.33° C | 95% | 979.5 hPa | 0 mm | - | 19 W/m² | - |
| 1777502299 | 8.89° C | 96% | 979.8 hPa | 0 mm | - | 16 W/m² | - |
| 1777501995 | 8.89° C | 96% | 979.7 hPa | 0 mm | - | 21 W/m² | - |
| 1777501692 | 8.89° C | 95% | 979.7 hPa | 0 mm | - | 22 W/m² | - |
| 1777501390 | 8.89° C | 95% | 979.5 hPa | 0 mm | - | 25 W/m² | - |
| 1777501087 | 8.89° C | 96% | 979.6 hPa | 0 mm | - | 32 W/m² | - |
| 1777500785 | 8.89° C | 96% | 979.4 hPa | 0 mm | - | 28 W/m² | - |
| 1777500482 | 9.44° C | 96% | 979.2 hPa | 0 mm | - | 42 W/m² | - |
* Rain latest hour (hover to see other rain measurements)
** Current wind speed in m/s (hover to see current wind gust speed)